Lapse_Rate
6.8 6.6 6.6 6.7 6.9 6.8 6.7 6.6 6.5 6.4 6.3 6.4 6.4 6.3 6.0 5.9 5.8 5.6 5.1 5.0 4.8 4.7 4.9 5.0 4.8 4.6 4.8 4.6 4.7 4.4 4.3 4.3 4.5 5.1 5.7 6.1 6.1 6.3 6.4 6.5 6.4 6.4 6.2
6.8 6.9 6.8 6.8 6.7 6.7 6.7 6.6 6.5 6.1 6.2 6.0 5.7 5.7 5.7 5.9 5.8 5.2 5.1 4.9 4.7 4.9 5.2 5.1 4.9 5.0 5.0 4.8 4.6 4.6 4.9 5.2 5.7 6.3 6.5 6.4 6.4 6.6 6.5 6.4 6.3 6.3 5.9
6.9 6.8 6.8 6.7 6.6 6.5 6.4 6.2 5.9 6.0 6.0 6.0 5.9 5.9 6.1 5.8 5.4 5.3 5.0 4.9 5.0 5.2 5.3 5.1 5.1 5.2 5.0 5.0 5.0 5.3 5.6 6.1 6.3 6.5 6.5 6.6 6.6 6.5 6.4 6.2 6.2 6.1 5.7
6.7 6.6 6.6 6.7 6.6 6.5 6.1 6.0 6.0 6.0 6.0 5.8 5.8 5.9 5.7 5.1 5.1 5.0 4.8 5.4 5.5 5.5 5.2 5.3 5.1 5.2 5.5 5.4 5.5 5.8 6.2 6.5 6.5 6.6 6.7 6.7 6.7 6.5 6.4 6.3 6.3 5.9 6.1
6.3 6.4 6.6 6.3 6.3 6.1 6.3 6.2 6.2 6.0 6.0 5.6 5.8 5.9 5.1 5.0 5.2 5.0 5.5 5.7 5.5 5.7 5.7 5.4 5.6 5.8 6.0 6.0 6.2 6.3 6.5 6.6 6.6 6.8 6.8 6.8 6.9 6.7 6.5 6.3 6.0 6.3 6.4
6.3 6.3 6.1 6.3 5.9 6.0 5.9 6.1 6.3 6.1 6.2 6.1 6.1 5.1 5.4 5.7 5.3 5.5 5.7 5.7 6.0 5.9 5.6 6.1 6.1 6.1 6.2 6.3 6.4 6.6 6.7 6.8 7.0 7.1 6.8 6.8 6.9 6.6 6.4 6.2 6.1 6.3 6.5
6.3 6.3 6.3 6.3 6.1 5.8 6.2 6.2 6.4 6.4 6.1 5.7 4.9 5.6 5.5 5.3 5.4 5.9 5.9 6.0 6.4 6.5 6.6 6.4 6.1 6.2 6.5 6.6 6.7 6.8 6.9 6.9 7.1 6.9 6.8 6.7 6.7 6.4 6.3 6.3 6.2 6.1 5.9
6.1 6.2 6.2 6.4 6.5 6.5 6.6 6.4 6.4 6.3 5.5 5.3 5.5 5.7 5.6 5.5 6.0 6.0 6.2 6.4 6.8 6.9 6.8 6.7 6.5 6.6 6.7 6.9 7.0 6.9 7.1 7.1 7.1 6.8 6.8 6.7 6.6 6.5 6.4 6.5 6.4 6.4 6.2
6.1 6.2 6.4 6.5 6.5 6.5 6.4 6.5 6.3 5.8 5.4 5.5 5.7 5.7 5.6 5.8 5.9 6.3 6.5 6.9 7.1 7.0 7.0 6.8 6.7 6.7 6.8 7.1 7.2 7.1 7.3 7.3 7.1 7.0 7.0 6.9 6.8 6.6 6.4 6.6 6.5 6.5 6.6
6.2 6.2 6.4 6.5 6.4 6.2 6.0 6.2 5.7 5.5 5.7 5.9 5.7 5.6 5.6 6.1 6.5 6.9 7.1 7.1 7.0 7.0 6.9 6.9 6.9 6.7 6.8 7.2 7.3 7.3 7.5 7.5 7.3 7.3 7.2 7.2 7.0 6.7 6.5 6.5 6.6 6.7 6.5
6.0 6.1 6.4 6.5 6.2 6.1 5.9 5.4 5.7 5.8 5.9 5.7 5.8 5.7 5.9 6.4 7.0 7.2 7.3 7.4 7.2 7.0 6.9 6.9 6.8 6.7 6.7 7.2 7.4 7.4 7.6 7.6 7.5 7.5 7.5 7.5 7.3 7.1 6.8 6.5 6.4 6.6 6.6
5.6 5.6 5.6 5.8 5.8 5.5 5.8 6.0 6.0 5.8 5.7 5.7 5.7 5.9 6.2 6.9 7.3 7.3 7.3 7.4 7.2 7.2 7.0 6.8 6.8 6.9 6.7 7.2 7.4 7.5 7.7 7.7 7.7 7.8 7.7 7.6 7.7 7.5 7.2 6.8 6.5 6.6 6.4
5.1 5.1 5.0 5.1 5.3 5.7 6.0 6.1 5.9 5.7 5.6 5.7 5.9 6.3 6.9 7.3 7.4 7.4 7.4 7.3 7.3 7.2 7.0 6.7 6.8 7.1 6.9 7.1 7.4 7.6 7.7 7.7 7.8 7.9 7.8 7.7 7.8 7.8 7.7 7.3 6.7 6.6 6.6
5.3 5.3 5.3 5.4 5.6 5.9 6.0 5.9 5.8 5.7 5.7 6.0 6.3 6.8 7.3 7.5 7.6 7.4 7.4 7.4 7.3 7.2 7.1 6.9 6.9 7.3 7.2 7.1 7.3 7.7 7.8 7.8 7.8 7.9 7.9 7.8 7.8 7.9 8.0 7.8 7.2 6.9 6.7
5.4 5.3 5.2 5.4 5.7 5.7 5.6 5.6 5.6 5.9 6.0 6.3 6.9 7.2 7.6 7.7 7.5 7.2 7.2 7.2 7.1 7.1 7.0 7.0 7.0 7.4 7.4 7.3 7.3 7.6 7.8 7.8 7.8 7.9 7.9 7.8 7.8 7.9 8.0 8.0 7.5 7.0 6.8
5.1 5.1 5.2 5.4 5.5 5.5 5.6 5.8 5.9 6.1 6.5 6.9 7.3 7.5 7.6 7.5 7.3 7.0 7.0 7.0 6.9 6.8 6.8 7.2 7.4 7.6 7.5 7.4 7.4 7.6 8.0 7.9 7.9 7.9 7.9 7.8 7.8 7.9 8.0 8.1 7.9 7.4 7.1
5.1 5.3 5.5 5.7 5.7 5.7 5.8 5.9 6.2 6.8 7.3 7.6 7.4 7.3 7.1 7.1 6.9 6.8 6.7 6.6 6.7 6.6 6.8 7.3 7.5 7.6 7.6 7.5 7.5 7.8 8.1 8.0 8.0 8.0 8.0 7.8 7.9 7.9 8.1 8.1 8.1 7.7 7.2
5.2 5.4 5.6 5.7 5.7 5.8 6.0 6.3 6.8 7.3 7.7 7.9 7.7 7.4 7.1 6.8 6.7 6.7 6.6 6.7 7.2 6.9 7.2 7.4 7.4 7.4 7.6 7.6 7.7 7.9 8.2 8.2 8.1 8.0 8.0 7.9 7.9 8.0 8.1 8.1 8.1 8.0 7.6
5.2 5.4 5.5 5.6 5.7 5.9 6.3 6.9 7.5 7.5 7.4 7.4 7.4 7.2 6.8 6.6 6.1 6.4 6.5 6.6 7.0 7.2 7.5 7.5 7.4 7.4 7.6 7.7 7.8 8.0 8.1 8.2 8.1 8.1 8.0 7.9 7.8 8.0 8.1 8.1 8.1 8.1 8.0
5.5 5.5 5.6 5.9 6.3 6.8 7.3 7.5 7.4 7.2 7.0 6.8 6.6 6.5 6.4 6.4 6.6 6.6 6.6 6.6 6.7 7.2 7.3 7.6 7.6 7.6 7.7 7.8 7.9 7.9 8.1 8.3 8.2 8.1 8.1 7.8 7.6 7.8 7.9 8.1 8.1 8.1 8.1
5.4 5.7 6.1 6.5 6.9 7.2 7.3 7.1 6.8 6.5 6.3 6.2 6.3 6.4 6.4 6.2 6.3 6.5 6.7 6.7 6.8 7.0 7.5 7.9 7.9 8.0 7.9 7.9 7.9 7.9 8.1 8.3 8.3 8.2 8.2 7.9 7.8 7.8 7.8 7.9 8.0 8.0 8.1
6.0 6.3 6.7 7.0 7.2 7.1 6.7 6.3 6.1 6.0 6.1 6.2 6.3 6.3 6.3 6.1 6.0 6.4 6.6 6.6 6.8 7.2 7.7 7.8 7.9 7.9 7.9 7.9 7.9 8.0 8.2 8.4 8.2 8.3 8.1 7.9 7.9 7.9 7.9 7.7 7.9 8.0 8.1
6.7 7.0 7.1 7.0 6.7 6.4 6.1 6.0 5.9 5.9 5.8 5.9 6.1 6.2 6.1 6.2 6.1 6.2 6.4 6.7 7.0 7.0 7.8 8.0 8.0 7.9 8.1 8.0 7.9 8.1 8.3 8.5 8.3 8.2 8.1 8.0 7.9 7.9 7.9 7.8 7.7 7.9 8.0
7.2 7.1 6.9 6.5 6.2 6.0 5.9 5.8 5.7 5.5 5.7 5.7 5.6 5.6 5.5 5.6 6.0 6.4 6.6 6.8 7.5 7.4 7.7 8.1 8.1 7.9 8.1 8.1 8.1 8.4 8.5 8.5 8.3 8.1 8.0 7.9 7.8 7.8 7.8 7.9 7.7 7.8 7.9
6.9 6.5 6.3 6.0 5.8 5.7 5.6 5.8 5.7 5.6 5.4 5.4 5.6 5.6 5.5 5.6 5.8 6.1 6.3 7.0 7.5 8.0 8.2 8.4 8.2 8.1 8.1 8.3 8.5 8.4 8.3 8.3 8.2 8.1 8.0 7.9 7.8 7.6 7.8 7.8 7.7 7.7 7.6
6.3 6.1 5.9 5.5 5.4 5.1 5.4 5.7 5.6 5.4 5.5 5.7 5.7 5.6 5.4 5.3 5.5 5.8 6.1 6.4 7.2 8.1 8.5 8.5 8.4 8.2 8.2 8.2 8.2 8.2 8.0 8.0 8.1 8.1 8.0 8.0 7.7 7.7 7.6 7.6 7.7 7.7 7.6
Wind_Speed
12 12 13 10 9 9 9 9 9 8 8 7 6 6 5 5 4 4 4 3 3 3 3 5 5 3 2 2 1 1 2 2 3 3 2 3 3 5 13 15 15 15 14
11 10 10 9 10 10 10 10 9 9 9 7 7 5 5 4 3 6 6 5 6 6 6 5 5 3 4 4 3 4 3 3 3 5 2 2 5 5 10 8 12 13 14
8 9 8 10 12 11 10 10 9 8 7 7 6 6 4 5 5 6 6 6 7 7 7 6 6 6 5 4 4 4 3 2 3 3 4 2 3 3 5 6 6 11 12
9 11 12 13 13 11 11 10 10 8 7 6 5 5 6 6 6 6 6 6 7 6 6 6 5 6 6 5 4 5 3 3 3 3 4 5 3 4 3 4 9 6 9
13 13 13 11 9 9 8 7 6 6 5 4 2 4 5 5 5 7 7 7 6 6 4 3 3 7 9 8 3 5 3 2 3 4 4 3 4 3 6 5 7 8 8
12 14 11 9 7 6 7 7 6 4 3 2 3 5 6 6 10 12 10 8 6 6 6 6 5 8 7 9 10 8 6 3 3 3 3 3 4 4 3 4 6 7 6
12 9 8 8 9 11 10 8 6 5 2 4 5 6 7 7 11 12 13 6 7 7 6 5 4 3 6 5 7 7 6 7 8 4 4 3 3 3 5 7 8 8 7
7 8 9 11 12 10 10 7 5 3 1 5 6 6 6 6 10 11 14 7 6 7 7 7 6 6 6 6 5 5 5 5 5 5 5 5 5 7 6 7 9 9 7
10 11 12 13 12 8 4 4 2 2 5 4 4 6 6 6 8 10 10 6 6 6 5 6 6 6 9 12 6 5 5 6 7 8 8 11 13 15 15 5 6 6 8
11 12 11 9 7 7 4 1 2 5 3 4 5 5 7 7 7 11 9 3 5 4 5 6 11 8 11 13 6 5 5 6 4 4 4 8 11 12 14 7 5 6 7
11 9 8 6 5 2 1 3 4 5 4 5 5 6 7 7 7 12 14 6 6 5 5 4 5 12 12 14 14 6 7 5 5 4 4 3 4 4 6 9 9 5 7
6 6 5 3 2 1 4 4 4 4 5 6 5 6 5 5 9 11 16 15 10 6 6 5 5 14 15 16 12 12 13 6 2 2 1 4 4 4 4 7 12 12 12
5 4 3 1 2 3 4 5 4 5 4 5 5 5 5 4 4 11 13 16 14 6 6 9 12 15 16 12 17 14 8 3 3 1 3 3 2 3 6 5 10 12 13
5 4 3 3 5 4 4 4 4 4 4 5 5 6 6 4 4 3 5 7 12 8 8 8 6 6 7 5 4 7 3 4 4 4 3 2 2 1 2 2 2 4 4
4 4 5 3 5 5 4 4 5 6 7 7 6 7 6 8 6 9 9 6 7 10 8 4 5 4 6 6 5 6 4 3 3 3 2 3 2 1 2 2 2 3 1
5 4 4 3 4 5 5 8 9 15 15 17 19 14 9 16 15 15 16 18 18 15 5 6 8 8 9 8 7 7 4 5 4 4 3 3 3 2 2 2 2 2 2
6 7 5 6 6 6 7 7 10 10 13 16 17 20 21 21 18 19 18 19 18 14 7 7 8 8 9 8 7 7 6 5 5 4 4 4 3 2 2 2 2 2 2
6 7 5 5 6 6 7 8 9 11 13 13 9 13 17 23 23 22 24 18 8 9 8 9 10 9 8 8 7 7 6 5 4 4 4 4 4 3 2 3 2 2 2
7 6 7 5 4 6 6 7 7 9 10 11 12 14 13 18 22 25 21 11 9 9 9 10 9 8 8 8 8 7 8 6 5 4 4 5 5 4 4 4 3 4 3
6 8 6 5 6 7 7 8 8 8 10 10 11 12 12 12 10 9 8 9 10 10 8 9 8 8 8 8 7 7 7 6 5 5 5 5 5 5 4 4 3 3 2
5 7 9 6 7 7 7 8 8 9 8 9 10 12 21 14 12 11 12 12 9 7 7 7 7 8 8 8 8 8 8 7 7 7 6 6 5 5 5 4 3 3 3
6 6 6 6 6 7 7 7 8 8 9 10 10 11 19 11 11 14 13 8 8 9 8 8 7 7 8 8 9 9 9 8 7 7 6 6 6 6 5 4 3 3 3
4 5 5 6 6 7 7 7 7 8 9 10 10 10 10 10 10 12 13 15 8 6 5 5 5 7 7 8 10 9 9 8 8 7 7 7 7 7 6 5 4 3 3
4 4 6 6 6 6 6 7 7 8 9 9 9 10 10 10 10 12 12 12 12 11 9 7 5 6 7 4 8 12 12 11 11 9 10 7 7 8 6 5 4 4 3
3 3 3 5 5 6 6 6 7 8 7 8 9 9 10 10 10 11 10 11 11 11 11 9 7 7 7 8 7 8 6 12 12 13 10 7 8 10 9 8 6 3 3
3 4 2 3 3 5 5 6 7 7 8 8 8 9 10 10 10 10 10 11 11 11 12 8 12 14 12 9 10 11 10 7 2 7 9 6 7 7 7 9 12 6 6
Wind_Direction
170 168 167 162 149 151 156 159 159 165 164 168 171 161 184 199 180 180 182 196 188 202 198 199 218 216 224 220 147 166 186 181 240 283 251 268 282 281 299 311 312 305 301
175 164 161 159 158 165 168 171 171 171 173 167 172 172 188 198 213 197 202 191 194 194 207 208 219 209 216 198 195 207 212 210 218 273 267 273 250 281 285 294 304 307 301
167 160 160 167 171 178 179 178 175 167 170 171 172 185 183 220 216 218 219 214 203 199 197 206 214 207 217 205 210 219 224 235 218 247 280 260 266 268 299 300 295 296 291
162 174 185 183 180 186 176 180 177 169 164 175 189 192 223 224 219 222 214 211 206 200 200 206 220 218 215 215 223 225 214 237 252 261 279 278 258 287 284 314 313 308 307
175 190 192 184 178 175 175 164 137 140 180 167 170 255 254 247 239 222 202 204 201 197 186 200 222 237 227 214 187 212 198 223 257 270 277 272 295 315 320 316 302 308 305
190 196 182 172 164 135 117 112 115 117 96 160 251 257 267 258 241 224 196 191 186 180 194 211 205 237 237 200 210 193 186 204 241 244 252 277 290 290 293 294 296 307 313
189 174 157 132 117 117 109 102 100 100 65 350 294 282 275 271 256 238 203 174 179 189 196 190 214 223 211 202 206 210 229 252 252 228 252 251 268 270 290 299 294 286 282
87 91 100 106 105 108 112 110 109 76 291 256 272 277 275 273 265 242 191 169 174 196 195 194 198 215 213 208 205 227 241 253 259 243 232 257 250 268 255 287 296 299 287
97 102 110 115 111 102 87 112 109 248 253 263 267 279 287 292 278 220 171 170 183 200 204 193 197 214 227 221 199 226 250 264 269 263 276 293 306 310 312 313 306 312 309
96 101 98 98 107 109 114 168 242 249 265 275 284 284 281 281 268 215 188 157 186 203 213 213 221 208 225 218 201 213 244 259 259 275 289 297 300 299 308 300 290 298 307
94 91 89 82 84 129 174 236 261 260 265 284 288 285 282 266 263 218 202 186 203 198 210 215 219 224 222 215 214 205 223 232 249 242 260 272 283 283 288 288 279 261 282
100 105 95 114 167 214 248 252 259 269 276 282 283 283 278 281 247 231 214 214 202 193 213 218 213 218 223 224 225 233 248 242 217 235 239 276 268 276 274 284 288 283 265
69 63 86 191 268 299 299 284 288 280 257 268 267 271 277 283 257 241 236 232 227 218 225 223 216 220 225 229 235 241 251 216 223 210 253 253 218 246 287 289 297 300 292
44 17 350 330 310 301 289 274 268 267 267 263 262 270 267 261 256 228 231 238 234 220 237 241 214 202 208 213 230 246 222 219 214 220 226 227 244 285 277 264 275 305 302
6 344 325 306 301 297 275 259 257 247 236 261 260 259 262 269 245 223 217 223 226 230 215 195 208 213 223 228 232 234 234 219 209 208 205 227 233 234 264 273 265 297 276
6 348 327 322 319 312 303 305 258 256 261 258 259 249 259 245 251 242 235 234 235 225 203 219 222 216 224 226 225 231 218 225 226 209 209 208 215 220 252 278 259 256 274
24 8 358 353 341 329 324 314 314 308 273 276 266 265 255 250 244 247 247 245 238 215 214 223 225 217 222 224 224 220 230 219 208 203 199 204 203 221 218 251 272 271 290
15 5 0 344 340 334 328 322 319 315 314 314 291 267 273 269 258 259 261 268 247 215 212 227 229 223 220 219 218 218 222 219 202 205 197 198 192 197 217 240 239 241 265
4 353 348 335 328 323 323 322 320 317 311 307 310 309 309 296 286 277 269 260 246 232 222 224 225 223 221 216 215 215 212 213 196 191 202 198 195 181 221 234 235 251 256
359 344 341 335 339 341 336 335 330 331 328 325 317 306 302 302 298 285 273 264 257 242 215 220 221 225 227 219 215 210 208 207 198 200 205 200 194 183 210 212 201 218 251
3 358 347 359 352 344 344 334 333 325 323 327 325 331 342 331 293 280 280 271 246 222 219 212 217 221 221 222 217 209 207 203 203 201 199 200 184 194 209 197 202 211 229
20 2 354 349 349 347 338 336 330 337 330 329 328 330 342 348 343 342 307 262 239 231 221 211 213 214 218 217 216 212 206 200 196 200 201 194 187 194 183 181 184 201 199
23 2 351 351 347 342 341 339 340 340 333 332 332 334 340 341 344 348 343 351 308 259 220 202 214 230 221 220 217 212 205 202 197 191 201 196 189 188 178 183 175 173 182
0 8 3 355 348 342 338 333 337 332 333 333 333 335 337 339 343 346 351 349 352 359 356 19 16 9 3 272 215 204 205 203 187 192 192 193 194 185 175 165 171 176 168
3 352 1 349 332 337 333 334 335 329 332 332 331 333 334 337 345 344 347 345 345 346 347 343 356 356 358 359 6 6 223 205 189 185 188 191 190 182 183 180 166 155 149
8 357 343 330 335 340 334 331 331 329 334 331 332 333 328 342 336 337 338 341 338 336 335 336 336 340 344 346 353 357 356 354 329 221 195 193 188 181 178 180 171 170 157